Current weather by "City, St" or "zip code"  
 
Advertise Here

Current Conditions: Albany International Airport, NY

A Few Clouds


64.0 F

Last Updated on Jul 27 2021, 12:51 am EDT
Humidity: 87%
Wind Speed: N 0.0 mph
Barometer 29.94 in
Dewpoint: 60.1 F
Visibility: 10.00 mi
Precip: --
Heat Index: NA
Wind Chill: NA
Current conditions at:

Albany International Airport, NY (KALB)

Lat: 42.74722 Lon: 73.79912

Local Radar Image active severe weather and emergency alerts image image weather storm and storm spotter reports image weather observation monitoring service image
Local
Radar
Active
Alerts
Storm Reports Obs
Monitoring

Sign-up For Email & Text Message Weather Alert Notification Services


Advertise Here

Observation History for Albany International Airport, NY


Time Wind
(mph)
Vis
(mi)
Weather Precip (in) Temperature (F) Relative
Humidity
Wind
Chill
(F)
Heat
Index
(F)
Pressure
Air Dwpt altimeter
(in)
sea level
(mb)
Rmks
12:51 am EDT N 0.0 10.00 A Few Clouds -- 64.0 60.1 87% NA NA 29.94 1013.6
11:51 pm EDT NE 3.5 10.00 A Few Clouds -- 64.0 59.0 84% NA NA 29.93 1013.3
10:51 pm EDT W 5.8 10.00 A Few Clouds -- 68.0 59.0 73% NA NA 29.91 1012.7
9:51 pm EDT SW 6.9 10.00 A Few Clouds -- 68.0 60.1 76% NA NA 29.92 1012.9
8:51 pm EDT W 4.6 10.00 A Few Clouds -- 73.0 59.0 62% NA NA 29.90 1012.2
7:51 pm EDT W 8.1 10.00 A Few Clouds -- 76.0 60.1 58% NA NA 29.88 1011.6
6:51 pm EDT W 9.2 10.00 A Few Clouds -- 79.0 60.1 52% NA NA 29.87 1011.2
5:51 pm EDT W 9.2 9.00 A Few Clouds -- 81.0 59.0 47% NA 81 29.87 1011.3
4:51 pm EDT W 12.7 9.00 A Few Clouds -- 82.0 60.1 47% NA 82 29.88 1011.6
3:51 pm EDT W 13.8 10.00 A Few Clouds -- 82.0 57.9 44% NA 82 29.88 1011.7
2:51 pm EDT W 15.0 5.00 A Few Clouds with Haze -- 83.0 60.1 46% NA 83 29.89 1012.0
1:51 pm EDT NW 15.0 G 20.7 4.00 A Few Clouds with Haze -- 81.0 61.0 51% NA 82 29.89 1012.1
12:51 pm EDT W 12.7 4.00 A Few Clouds with Haze -- 79.0 63.0 58% NA NA 29.90 1012.3
11:51 am EDT W 9.2 5.00 A Few Clouds with Haze -- 78.0 64.0 62% NA NA 29.90 1012.3
10:51 am EDT W 5.8 6.00 A Few Clouds with Haze -- 76.0 66.0 72% NA NA 29.91 1012.7
9:51 am EDT W 6.9 6.00 Fair with Haze -- 72.0 66.0 82% NA NA 29.90 1012.5
8:51 am EDT SW 5.8 6.00 Fog/Mist -- 69.0 66.0 90% NA NA 29.91 1012.5
7:51 am EDT S 5.8 1.50 Fog/Mist -- 65.0 64.9 100% NA NA 29.90 1012.3
6:51 am EDT SE 4.6 0.25 Fog -- 65.0 64.9 100% NA NA 29.89 1012.0
5:51 am EDT S 3.5 0.25 Fog -- 65.0 64.9 100% NA NA 29.88 1011.8
4:51 am EDT S 4.6 1.00 Fog/Mist -- 65.0 64.9 100% NA NA 29.88 1011.7
3:51 am EDT N 0.0 1.00 Fog/Mist -- 66.0 66.0 100% NA NA 29.87 1011.4
2:51 am EDT S 3.5 0.75 Fog/Mist -- 67.0 66.9 100% NA NA 29.88 1011.5
1:51 am EDT S 4.6 0.75 Patches Fog Fog/Mist -- 67.0 66.9 100% NA NA 29.88 1011.5

Regional Weather Observation


Fulton County Airport, NY (KNY0)

Fair
64.0 F

Albany International Airport, NY (KALB)

A Few Clouds
64.0 F

Bennington Morse State Airport, VT (KDDH)

Fair
61.0 F

Glens Falls, Floyd Bennett Memorial Airport, NY (KGFL)

Fair
62.0 F

North Adams Harriman-and-West Airport, MA (KAQW)

A Few Clouds
63.0 F

Pittsfield Municipal Airport, MA (KPSF)

Fair
64.0 F
Advertise Here

Advertise Here